Weather History for KLGC - November, 2012

Change the Weather History Date:

Sunday, November 11, 2012

  Actual Average Record
Temperature  
Mean Temperature 52 °F -  
Max Temperature 71 °F 67 °F 79 °F (1985)
Min Temperature 33 °F 40 °F 24 °F (2011)
Degree Days  
Heating Degree Days 13    
Growing Degree Days 2 (Base 50)    
Moisture  
Dew Point 52 °F    
Average Humidity 68    
Maximum Humidity 100    
Minimum Humidity 43    
Precipitation  
Precipitation 0.00 in - - ()
Sea Level Pressure  
Sea Level Pressure 30.32 in    
Wind  
Wind Speed 3 mph (SSW)    
Max Wind Speed 14 mph    
Max Gust Speed 21 mph    
Visibility 10 miles    
Events      
Averages and records for this station are not official NWS values.
T = Trace of Precipitation, MM = Missing Value Source: NWS Daily Summary

Daily Weather History Graph

Daily Weather History Graph

Search for Another Location

Airport or City:

Trip Planner

Search our weather history database for the weather conditions in past years. The results will help you decide how hot, cold, wet, or windy it might be!

Date:

Astronomy

Nov. 11, 2012 Rise Set
Actual Time 7:07 AM EST 5:40 PM EST
Civil Twilight 6:41 AM EST 6:06 PM EST
Nautical Twilight 6:11 AM EST 6:36 PM EST
Astronomical Twilight 5:42 AM EST 7:05 PM EST
Moon 4:27 AM EST (11/11) 3:58 PM EST (11/11)
Length of Visible Light 11h 25m
Length of Day
10h 33m
Waning Crescent, 7% of the Moon is Illuminated
Nov 11
Waning Crescent
Nov 13
New
Nov 20
First Quarter
Nov 28
Full
Dec 6
Last Quarter

Hourly Weather History & Observations

Time (EST) Temp. Dew Point Humidity Pressure Visibility Wind Dir Wind Speed Gust Speed Precip Events Conditions
12:15 AM 37.4 °F - N/A% 30.32 in 10.0 mi Calm Calm - N/A   Clear
12:35 AM 35.6 °F - N/A% 30.32 in 10.0 mi Calm Calm - N/A   Clear
12:55 AM 35.6 °F - N/A% 30.32 in 10.0 mi Calm Calm - N/A   Clear
1:15 AM 35.6 °F - N/A% 30.32 in 10.0 mi Calm Calm - N/A   Clear
1:35 AM 35.6 °F - N/A% 30.31 in 10.0 mi Calm Calm - N/A   Clear
1:55 AM 33.8 °F - N/A% 30.31 in 10.0 mi Calm Calm - N/A   Clear
2:15 AM 33.8 °F - N/A% 30.32 in 10.0 mi Calm Calm - N/A   Clear
2:35 AM 35.6 °F - N/A% 30.32 in 5.0 mi Calm Calm - N/A   Clear
2:55 AM 33.8 °F - N/A% 30.31 in 1.0 mi Calm Calm - N/A   Clear
3:15 AM 33.8 °F - N/A% 30.31 in 4.0 mi Calm Calm - N/A   Clear
3:35 AM 33.8 °F - N/A% 30.30 in 7.0 mi Calm Calm - N/A   Clear
3:55 AM 33.8 °F - N/A% 30.30 in 3.0 mi Calm Calm - N/A   Clear
4:15 AM 33.8 °F - N/A% 30.30 in 8.0 mi Calm Calm - N/A   Clear
4:35 AM 33.8 °F - N/A% 30.31 in 10.0 mi Calm Calm - N/A   Clear
4:55 AM 33.8 °F - N/A% 30.32 in 10.0 mi North - - N/A   Clear
5:15 AM 33.8 °F - N/A% 30.31 in 10.0 mi Calm Calm - N/A   Clear
5:35 AM 33.8 °F - N/A% 30.32 in 10.0 mi Calm Calm - N/A   Clear
5:55 AM 33.8 °F - N/A% 30.33 in 10.0 mi Calm Calm - N/A   Clear
6:15 AM 33.8 °F - N/A% 30.34 in 10.0 mi North - - N/A   Clear
6:35 AM 35.6 °F - N/A% 30.35 in 10.0 mi Calm Calm - N/A   Clear
6:55 AM 33.8 °F - N/A% 30.36 in 7.0 mi North - - N/A   Clear
7:15 AM 35.6 °F - N/A% 30.37 in 10.0 mi Calm Calm - N/A   Clear
7:35 AM 37.4 °F - N/A% 30.38 in 10.0 mi Calm Calm - N/A   Clear
7:55 AM 39.2 °F - N/A% 30.37 in 10.0 mi Calm Calm - N/A   Clear
8:15 AM 44.6 °F - N/A% 30.38 in 10.0 mi Calm Calm - N/A   Clear
8:35 AM 50.0 °F 50.0 °F 100% 30.38 in 10.0 mi Calm Calm - N/A   Clear
8:55 AM 55.4 °F 53.6 °F 94% 30.38 in 10.0 mi Calm Calm - N/A   Clear
9:15 AM 59.0 °F 53.6 °F 82% 30.38 in 10.0 mi South 6.9 mph - N/A   Clear
9:35 AM 62.6 °F 53.6 °F 72% 30.38 in 10.0 mi SSW 8.1 mph - N/A   Clear
9:55 AM 64.4 °F 53.6 °F 68% 30.39 in 10.0 mi SSW 6.9 mph - N/A   Clear
10:15 AM 64.4 °F 51.8 °F 64% 30.39 in 10.0 mi SSW 11.5 mph - N/A   Clear
10:35 AM 66.2 °F 51.8 °F 60% 30.39 in 10.0 mi SSW 8.1 mph - N/A   Scattered Clouds
10:55 AM 66.2 °F 51.8 °F 60% 30.39 in 10.0 mi SSW 6.9 mph - N/A   Mostly Cloudy
11:15 AM 66.2 °F 50.0 °F 56% 30.38 in 10.0 mi South 9.2 mph - N/A   Mostly Cloudy
11:35 AM 68.0 °F 48.2 °F 49% 30.37 in 10.0 mi SSW 9.2 mph 20.7 mph N/A   Overcast
11:55 AM 68.0 °F 48.2 °F 49% 30.35 in 10.0 mi SSW 12.7 mph - N/A   Mostly Cloudy
12:15 PM 69.8 °F 48.2 °F 46% 30.34 in 10.0 mi South 13.8 mph 20.7 mph N/A   Mostly Cloudy
12:35 PM 68.0 °F 48.2 °F 49% 30.33 in 10.0 mi SSW 11.5 mph - N/A   Mostly Cloudy
12:55 PM 69.8 °F 48.2 °F 46% 30.32 in 10.0 mi SSW 13.8 mph 17.3 mph N/A   Mostly Cloudy
1:15 PM 71.6 °F 48.2 °F 43% 30.31 in 10.0 mi SSW 13.8 mph - N/A   Mostly Cloudy
1:35 PM 69.8 °F 48.2 °F 46% 30.30 in 10.0 mi SW 9.2 mph - N/A   Mostly Cloudy
1:55 PM 71.6 °F 50.0 °F 46% 30.29 in 10.0 mi South 8.1 mph - N/A   Mostly Cloudy
2:15 PM 71.6 °F 48.2 °F 43% 30.29 in 10.0 mi SSW 10.4 mph 17.3 mph N/A   Mostly Cloudy
2:35 PM 71.6 °F 48.2 °F 43% 30.29 in 10.0 mi SW 9.2 mph - N/A   Scattered Clouds
2:55 PM 69.8 °F 48.2 °F 46% 30.28 in 10.0 mi SSW 12.7 mph - N/A   Mostly Cloudy
3:15 PM 71.6 °F 48.2 °F 43% 30.28 in 10.0 mi SSW 10.4 mph - N/A   Mostly Cloudy
3:35 PM 69.8 °F 48.2 °F 46% 30.28 in 10.0 mi South 10.4 mph - N/A   Mostly Cloudy
3:55 PM 69.8 °F 48.2 °F 46% 30.28 in 10.0 mi South 8.1 mph - N/A   Scattered Clouds
4:15 PM 71.6 °F 48.2 °F 43% 30.28 in 10.0 mi SSW 6.9 mph - N/A   Scattered Clouds
4:35 PM 69.8 °F 48.2 °F 46% 30.28 in 10.0 mi South 9.2 mph - N/A   Partly Cloudy
4:55 PM 68.0 °F 48.2 °F 49% 30.27 in 10.0 mi SSW 5.8 mph - N/A   Partly Cloudy
5:15 PM 66.2 °F 50.0 °F 56% 30.27 in 10.0 mi South 6.9 mph - N/A   Scattered Clouds
5:35 PM 66.2 °F 50.0 °F 56% 30.27 in 10.0 mi South 3.5 mph - N/A   Mostly Cloudy
5:55 PM 64.4 °F 50.0 °F 59% 30.27 in 10.0 mi South 4.6 mph - N/A   Partly Cloudy
6:15 PM 64.4 °F 51.8 °F 64% 30.27 in 10.0 mi Calm Calm - N/A   Mostly Cloudy
6:35 PM 62.6 °F 51.8 °F 68% 30.28 in 10.0 mi Calm Calm - N/A   Mostly Cloudy
6:55 PM 60.8 °F 51.8 °F 72% 30.28 in 10.0 mi Calm Calm - N/A   Partly Cloudy
7:15 PM 59.0 °F 53.6 °F 82% 30.29 in 10.0 mi Calm Calm - N/A   Clear
7:35 PM 57.2 °F 53.6 °F 88% 30.29 in 10.0 mi Calm Calm - N/A   Scattered Clouds
7:55 PM 55.4 °F 55.4 °F 100% 30.28 in 10.0 mi Calm Calm - N/A   Scattered Clouds
8:15 PM 55.4 °F 55.4 °F 100% 30.28 in 10.0 mi Calm Calm - N/A   Scattered Clouds
8:35 PM 55.4 °F 55.4 °F 100% 30.28 in 10.0 mi Calm Calm - N/A   Clear
8:55 PM 55.4 °F 55.4 °F 100% 30.29 in 10.0 mi Calm Calm - N/A   Clear
9:15 PM 53.6 °F 53.6 °F 100% 30.29 in 10.0 mi Calm Calm - N/A   Clear
9:35 PM 51.8 °F 51.8 °F 100% 30.29 in 10.0 mi Calm Calm - N/A   Scattered Clouds
9:55 PM 51.8 °F - N/A% 30.28 in 10.0 mi Calm Calm - N/A   Partly Cloudy
10:15 PM 50.0 °F - N/A% 30.28 in 10.0 mi South 4.6 mph - N/A   Partly Cloudy
10:35 PM 57.2 °F 57.2 °F 100% 30.28 in 10.0 mi South 5.8 mph - N/A   Clear
10:55 PM 57.2 °F 57.2 °F 100% 30.28 in 10.0 mi South 3.5 mph - N/A   Clear
11:15 PM 57.2 °F 57.2 °F 100% 30.28 in 10.0 mi South 4.6 mph - N/A   Scattered Clouds
11:35 PM 60.8 °F 59.0 °F 94% 30.28 in 10.0 mi South 6.9 mph - N/A   Mostly Cloudy
11:55 PM 60.8 °F 57.2 °F 88% 30.28 in 10.0 mi South 5.8 mph - N/A   Scattered Clouds